Newport Airport, OR

3:35 AM PDT on May 26, 2017 (GMT -0700)
Newport Municipal

Weather History for KONP - January, 2014

Change the Weather History Date:

Friday, January 17, 2014

  Actual Average Record
Temperature  
Mean Temperature 50 °F -  
Max Temperature 62 °F 48 °F 62 °F (2014)
Min Temperature 37 °F 40 °F 30 °F (2008)
Degree Days  
Heating Degree Days 16    
Moisture  
Dew Point 35 °F    
Average Humidity 54    
Maximum Humidity 93    
Minimum Humidity 39    
Precipitation  
Precipitation 0.00 in - - ()
Sea Level Pressure  
Sea Level Pressure 30.17 in    
Wind  
Wind Speed 13 mph (East)    
Max Wind Speed 29 mph    
Max Gust Speed 34 mph    
Visibility 10 miles    
Events      
Averages and records for this station are not official NWS values.
T = Trace of Precipitation, MM = Missing Value Source: NWS Daily Summary

Daily Weather History Graph

Daily Weather History Graph

Search for Another Location

Airport or City:

Trip Planner

Search our weather history database for the weather conditions in past years. The results will help you decide how hot, cold, wet, or windy it might be!

Date:

Astronomy

Jan. 17, 2014 Rise Set
Actual Time 7:48 AM PST 5:04 PM PST
Civil Twilight 7:16 AM PST 5:37 PM PST
Nautical Twilight 6:40 AM PST 6:13 PM PST
Astronomical Twilight 6:05 AM PST 6:47 PM PST
Moon 7:03 PM PST (1/17) 8:13 AM PST (1/17)
Length of Visible Light 10h 21m
Length of Day
9h 16m
Full, 98% of the Moon is Illuminated
Jan 17
Full
Jan 23
Last Quarter
Jan 30
New
Feb 6
First Quarter
Feb 14
Full

Hourly Weather History & Observations

Time (PST) Temp. Windchill Dew Point Humidity Pressure Visibility Wind Dir Wind Speed Gust Speed Precip Events Conditions
12:15 AM 51.8 °F - 33.8 °F 50% 30.20 in 10.0 mi East 17.3 mph 26.5 mph N/A   Clear
12:35 AM 50.0 °F - 33.8 °F 54% 30.20 in 10.0 mi ESE 5.8 mph - N/A   Clear
12:55 AM 50.0 °F - 33.8 °F 54% 30.19 in 10.0 mi East 11.5 mph 16.1 mph N/A   Clear
1:15 AM 51.8 °F - 33.8 °F 50% 30.18 in 10.0 mi East 20.7 mph 27.6 mph N/A   Clear
1:35 AM 50.0 °F - 33.8 °F 54% 30.18 in 10.0 mi ENE 23.0 mph 28.8 mph N/A   Clear
1:55 AM 51.8 °F - 33.8 °F 50% 30.17 in 10.0 mi East 24.2 mph 34.5 mph N/A   Clear
2:15 AM 51.8 °F - 33.8 °F 50% 30.17 in 10.0 mi East 28.8 mph 33.4 mph N/A   Clear
2:35 AM 51.8 °F - 33.8 °F 50% 30.18 in 10.0 mi East 24.2 mph 33.4 mph N/A   Clear
2:55 AM 51.8 °F - 33.8 °F 50% 30.17 in 10.0 mi East 23.0 mph 28.8 mph N/A   Clear
3:15 AM 50.0 °F - 33.8 °F 54% 30.18 in 10.0 mi East 23.0 mph 31.1 mph N/A   Clear
3:35 AM 50.0 °F - 33.8 °F 54% 30.17 in 10.0 mi East 15.0 mph 25.3 mph N/A   Clear
3:55 AM 50.0 °F - 33.8 °F 54% 30.16 in 10.0 mi East 18.4 mph 25.3 mph N/A   Clear
4:15 AM 50.0 °F - 32.0 °F 50% 30.16 in 10.0 mi East 23.0 mph 29.9 mph N/A   Clear
4:35 AM 50.0 °F - 32.0 °F 50% 30.16 in 10.0 mi East 21.9 mph 25.3 mph N/A   Clear
4:55 AM 50.0 °F - 32.0 °F 50% 30.15 in 10.0 mi East 25.3 mph 32.2 mph N/A   Clear
5:15 AM 50.0 °F - 32.0 °F 50% 30.14 in 10.0 mi East 21.9 mph 27.6 mph N/A   Clear
5:35 AM 50.0 °F - 32.0 °F 50% 30.14 in 10.0 mi East 21.9 mph 27.6 mph N/A   Clear
5:55 AM 50.0 °F - 32.0 °F 50% 30.13 in 10.0 mi East 18.4 mph - N/A   Clear
6:15 AM 50.0 °F - 32.0 °F 50% 30.14 in 10.0 mi East 13.8 mph 23.0 mph N/A   Clear
6:35 AM 48.2 °F - 32.0 °F 54% 30.14 in 10.0 mi East 17.3 mph 20.7 mph N/A   Clear
6:55 AM 48.2 °F - 32.0 °F 54% 30.15 in 10.0 mi East 13.8 mph 21.9 mph N/A   Clear
7:15 AM 48.2 °F - 32.0 °F 54% 30.16 in 10.0 mi East 10.4 mph 16.1 mph N/A   Clear
7:35 AM 48.2 °F - 32.0 °F 54% 30.16 in 10.0 mi East 16.1 mph 20.7 mph N/A   Clear
7:55 AM 46.4 °F 40.1 °F 32.0 °F 57% 30.15 in 10.0 mi East 15.0 mph 23.0 mph N/A   Clear
8:15 AM 46.4 °F 39.5 °F 32.0 °F 57% 30.16 in 10.0 mi East 17.3 mph - N/A   Clear
8:35 AM 48.2 °F - 32.0 °F 54% 30.17 in 10.0 mi East 15.0 mph 19.6 mph N/A   Clear
8:55 AM 50.0 °F - 32.0 °F 50% 30.17 in 10.0 mi East 15.0 mph 20.7 mph N/A   Clear
9:15 AM 50.0 °F - 32.0 °F 50% 30.19 in 10.0 mi East 9.2 mph - N/A   Clear
9:35 AM 51.8 °F - 32.0 °F 47% 30.19 in 10.0 mi East 9.2 mph - N/A   Clear
9:55 AM 51.8 °F - 32.0 °F 47% 30.19 in 10.0 mi East 11.5 mph - N/A   Clear
10:15 AM 53.6 °F - 33.8 °F 47% 30.19 in 10.0 mi East 9.2 mph - N/A   Clear
10:35 AM 53.6 °F - 33.8 °F 47% 30.19 in 10.0 mi East 11.5 mph - N/A   Clear
10:55 AM 55.4 °F - 33.8 °F 44% 30.19 in 10.0 mi East 11.5 mph - N/A   Clear
11:15 AM 55.4 °F - 33.8 °F 44% 30.18 in 10.0 mi East 10.4 mph - N/A   Clear
11:35 AM 55.4 °F - 33.8 °F 44% 30.18 in 10.0 mi East 10.4 mph - N/A   Clear
11:55 AM 57.2 °F - 35.6 °F 44% 30.18 in 10.0 mi East 6.9 mph - N/A   Clear
12:15 PM 59.0 °F - 35.6 °F 42% 30.17 in 10.0 mi East 9.2 mph - N/A   Clear
12:35 PM 60.8 °F - 35.6 °F 39% 30.16 in 10.0 mi ESE 3.5 mph - N/A   Clear
12:55 PM 60.8 °F - 35.6 °F 39% 30.16 in 10.0 mi East 5.8 mph - N/A   Clear
1:15 PM 60.8 °F - 35.6 °F 39% 30.16 in 10.0 mi East 3.5 mph - N/A   Clear
1:35 PM 62.6 °F - 37.4 °F 39% 30.16 in 10.0 mi Calm Calm - N/A   Clear
1:55 PM 60.8 °F - 35.6 °F 39% 30.16 in 10.0 mi Calm Calm - N/A   Clear
2:15 PM 60.8 °F - 35.6 °F 39% 30.16 in 10.0 mi Calm Calm - N/A   Clear
2:35 PM 62.6 °F - 37.4 °F 39% 30.16 in 10.0 mi Calm Calm - N/A   Clear
2:55 PM 62.6 °F - 37.4 °F 39% 30.16 in 10.0 mi East 5.8 mph - N/A   Clear
3:15 PM 62.6 °F - 37.4 °F 39% 30.16 in 10.0 mi East 6.9 mph - N/A   Clear
3:35 PM 62.6 °F - 39.2 °F 42% 30.16 in 10.0 mi East 5.8 mph - N/A   Clear
3:55 PM 60.8 °F - 39.2 °F 45% 30.16 in 10.0 mi East 6.9 mph - N/A   Clear
4:15 PM 59.0 °F - 41.0 °F 51% 30.16 in 10.0 mi East 5.8 mph - N/A   Clear
4:35 PM 57.2 °F - 39.2 °F 51% 30.16 in 10.0 mi Calm Calm - N/A   Clear
4:55 PM 55.4 °F - 39.2 °F 54% 30.17 in 10.0 mi ENE 5.8 mph - N/A   Clear
5:15 PM 53.6 °F - 39.2 °F 58% 30.16 in 10.0 mi East 9.2 mph - N/A   Clear
5:35 PM 51.8 °F - 37.4 °F 58% 30.16 in 10.0 mi East 10.4 mph - N/A   Clear
5:55 PM 51.8 °F - 37.4 °F 58% 30.16 in 10.0 mi East 8.1 mph - N/A   Clear
6:15 PM 50.0 °F - 37.4 °F 62% 30.16 in 10.0 mi East 8.1 mph - N/A   Clear
6:35 PM 50.0 °F - 37.4 °F 62% 30.16 in 10.0 mi East 8.1 mph - N/A   Clear
6:55 PM 48.2 °F - 37.4 °F 66% 30.17 in 10.0 mi East 5.8 mph - N/A   Clear
7:15 PM 46.4 °F 42.9 °F 37.4 °F 71% 30.17 in 10.0 mi ENE 6.9 mph - N/A   Clear
7:35 PM 46.4 °F 42.4 °F 37.4 °F 71% 30.17 in 10.0 mi East 8.1 mph - N/A   Clear
7:55 PM 46.4 °F 41.9 °F 35.6 °F 66% 30.17 in 10.0 mi East 9.2 mph - N/A   Clear
8:15 PM 46.4 °F 44.3 °F 35.6 °F 66% 30.18 in 10.0 mi ESE 4.6 mph - N/A   Clear
8:35 PM 44.6 °F 40.2 °F 35.6 °F 71% 30.19 in 10.0 mi East 8.1 mph - N/A   Clear
8:55 PM 42.8 °F 39.3 °F 35.6 °F 76% 30.19 in 10.0 mi East 5.8 mph - N/A   Clear
9:15 PM 44.6 °F 40.7 °F 35.6 °F 71% 30.19 in 10.0 mi East 6.9 mph - N/A   Clear
9:35 PM 44.6 °F 40.2 °F 35.6 °F 71% 30.18 in 10.0 mi East 8.1 mph - N/A   Clear
9:55 PM 42.8 °F 37.5 °F 33.8 °F 70% 30.18 in 10.0 mi East 9.2 mph - N/A   Clear
10:15 PM 42.8 °F 41.1 °F 33.8 °F 70% 30.18 in 10.0 mi East 3.5 mph - N/A   Clear
10:35 PM 42.8 °F - 33.8 °F 70% 30.19 in 10.0 mi Calm Calm - N/A   Clear
10:55 PM 42.8 °F - 33.8 °F 70% 30.19 in 10.0 mi Calm Calm - N/A   Clear
11:15 PM 41.0 °F - 33.8 °F 76% 30.20 in 10.0 mi Calm Calm - N/A   Clear
11:35 PM 37.4 °F - 33.8 °F 87% 30.20 in 10.0 mi Calm Calm - N/A   Clear
11:55 PM 42.8 °F 37.5 °F 41.0 °F 93% 30.24 in 5.0 mi WSW 9.2 mph 17.3 mph N/A   Scattered Clouds